Northport, AL

6:55 AM CST on February 06, 2016 (GMT -0600)
Tuscaloosa Municipal

Weather History for KTCL - March, 2013

Change the Weather History Date:

Saturday, March 2, 2013

  Actual Average Record
Temperature  
Mean Temperature 38 °F 53 °F  
Max Temperature 42 °F 65 °F 82 °F (1955)
Min Temperature 34 °F 41 °F 19 °F (1980)
Degree Days  
Heating Degree Days 27 12  
Month to date heating degree days 52 25  
Since 1 July heating degree days 1904 2115  
Moisture  
Dew Point 26 °F    
Average Humidity 62    
Maximum Humidity 75    
Minimum Humidity 48    
Precipitation  
Precipitation 0.00 in 0.17 in 2.73 in (1960)
Month to date precipitation 0.00 0.34  
Year to date precipitation 10.77 11.01  
Sea Level Pressure  
Sea Level Pressure 30.15 in    
Wind  
Wind Speed 10 mph (NW)    
Max Wind Speed 17 mph    
Max Gust Speed 23 mph    
Visibility 10 miles    
Events      
T = Trace of Precipitation, MM = Missing Value Source: NWS Daily Summary

Daily Weather History Graph

Daily Weather History Graph

Search for Another Location

Airport or City:

Trip Planner

Search our weather history database for the weather conditions in past years. The results will help you decide how hot, cold, wet, or windy it might be!

Date:

Astronomy

Mar. 02, 2013 Rise Set
Actual Time 6:17 AM CST 5:48 PM CST
Civil Twilight 5:52 AM CST 6:13 PM CST
Nautical Twilight 5:23 AM CST 6:42 PM CST
Astronomical Twilight 4:54 AM CST 7:10 PM CST
Moon 11:08 PM CST (3/2) 9:02 AM CST (3/2)
Length of Visible Light 12h 21m
Length of Day
11h 31m
Waning Gibbous, 74% of the Moon is Illuminated
Mar 2
Waning Gibbous
Mar 4
Last Quarter
Mar 11
New
Mar 19
First Quarter
Mar 27
Full

Hourly Weather History & Observations

Time (CST) Temp. Windchill Dew Point Humidity Pressure Visibility Wind Dir Wind Speed Gust Speed Precip Events Conditions
12:53 AM 37.9 °F 32.1 °F 27.0 °F 65% 30.13 in 10.0 mi NW 8.1 mph - N/A   Overcast
1:53 AM 37.0 °F 31.6 °F 28.0 °F 70% 30.12 in 10.0 mi WNW 6.9 mph - N/A   Overcast
2:53 AM 37.0 °F 31.6 °F 28.0 °F 70% 30.11 in 10.0 mi WNW 6.9 mph - N/A   Overcast
3:03 AM 37.4 °F 32.1 °F 28.4 °F 70% 30.10 in 10.0 mi WNW 6.9 mph - N/A   Overcast
3:53 AM 36.0 °F 30.3 °F 28.0 °F 73% 30.10 in 10.0 mi WNW 6.9 mph - N/A   Overcast
4:53 AM 36.0 °F 29.6 °F 28.0 °F 73% 30.11 in 10.0 mi WNW 8.1 mph - N/A   Overcast
5:17 AM 35.6 °F 29.9 °F 26.6 °F 70% 30.11 in 10.0 mi NW 6.9 mph - N/A   Overcast
5:53 AM 36.0 °F 30.3 °F 27.0 °F 70% 30.12 in 10.0 mi WNW 6.9 mph - N/A   Overcast
6:53 AM 36.0 °F 29.6 °F 27.0 °F 70% 30.14 in 10.0 mi WNW 8.1 mph - N/A   Overcast
7:53 AM 37.0 °F 30.4 °F 28.0 °F 70% 30.15 in 10.0 mi WNW 9.2 mph - N/A   Overcast
8:53 AM 37.9 °F 30.9 °F 28.0 °F 68% 30.16 in 10.0 mi NW 10.4 mph - N/A   Overcast
9:53 AM 39.9 °F 32.1 °F 28.0 °F 63% 30.16 in 10.0 mi WNW 13.8 mph - N/A   Mostly Cloudy
10:42 AM 42.8 °F 36.6 °F 26.6 °F 53% 30.16 in 10.0 mi WNW 11.5 mph - N/A   Overcast
10:53 AM 41.0 °F 32.8 °F 26.1 °F 55% 30.17 in 10.0 mi WNW 16.1 mph 19.6 mph N/A   Overcast
11:53 AM 39.9 °F 32.9 °F 26.1 °F 58% 30.16 in 10.0 mi NW 11.5 mph - N/A   Overcast
12:53 PM 37.9 °F 30.5 °F 25.0 °F 60% 30.14 in 10.0 mi NW 11.5 mph 20.7 mph N/A   Overcast
1:53 PM 39.0 °F 30.6 °F 25.0 °F 57% 30.14 in 10.0 mi NNW 15.0 mph 20.7 mph N/A   Overcast
2:53 PM 39.9 °F 32.5 °F 23.0 °F 51% 30.14 in 10.0 mi NW 12.7 mph 19.6 mph N/A   Overcast
3:53 PM 39.0 °F 32.3 °F 21.9 °F 50% 30.14 in 10.0 mi NW 10.4 mph - N/A   Overcast
4:53 PM 39.0 °F 33.4 °F 21.9 °F 50% 30.15 in 10.0 mi NW 8.1 mph - N/A   Overcast
5:53 PM 37.9 °F 30.5 °F 23.0 °F 55% 30.17 in 10.0 mi WNW 11.5 mph - N/A   Overcast
7:53 PM 36.0 °F 30.3 °F 25.0 °F 64% 30.20 in 10.0 mi NNW 6.9 mph 17.3 mph N/A   Overcast
8:53 PM 36.0 °F 30.3 °F 26.1 °F 67% 30.21 in 10.0 mi NW 6.9 mph - N/A   Overcast
9:53 PM 35.1 °F 28.6 °F 26.1 °F 70% 30.21 in 10.0 mi NW 8.1 mph - N/A   Overcast
10:53 PM 35.1 °F 29.3 °F 26.1 °F 70% 30.21 in 10.0 mi NW 6.9 mph - N/A   Overcast
11:53 PM 34.0 °F 27.2 °F 26.1 °F 73% 30.20 in 10.0 mi NW 8.1 mph - N/A   Overcast